Lid_Strength_Index
1 1 1 1 1 1 0 0 0 0 0 0 0 -0 -0 -0 0 5 8 4 3 -2 1 5 6 7 7 8 8 10 14 16 14 14 12 11 12 10 11 11 12 10 11 10 10
1 1 1 1 1 1 1 1 1 1 0 0 0 0 0 0 4 7 2 -1 -3 -2 6 7 8 8 9 9 9 10 15 14 12 13 12 11 11 11 10 11 12 11 10 11 10
1 1 1 1 1 1 1 1 1 1 1 1 1 0 0 2 9 9 -1 -2 -3 -0 6 7 7 8 11 9 9 11 12 12 10 10 10 11 11 11 12 11 10 10 10 11 11
1 1 1 1 1 1 1 1 1 1 1 1 1 1 1 5 13 9 -2 -2 -2 5 6 8 9 11 11 11 10 12 10 10 10 9 10 11 10 11 11 8 8 9 9 11 11
1 1 1 1 1 1 1 1 1 1 1 1 1 1 5 11 10 4 -1 -1 4 6 8 9 10 11 12 12 12 12 11 10 9 10 10 10 9 10 12 9 9 9 10 10 11
0 0 1 1 1 1 1 1 1 1 1 1 1 1 9 13 8 3 3 5 7 8 9 9 10 10 12 12 12 12 12 11 11 11 10 10 9 11 10 10 9 10 10 11 11
1 1 1 1 1 2 1 1 1 1 1 1 2 3 10 11 8 5 6 7 8 8 10 10 10 11 12 13 12 12 13 13 13 12 12 11 12 13 9 10 10 10 11 11 11
1 1 1 1 1 1 1 1 2 2 2 2 3 7 13 8 8 8 8 9 9 9 10 10 10 10 12 12 13 15 15 17 14 14 13 12 16 11 11 12 11 11 11 11 10
2 2 2 2 2 2 2 2 2 2 2 3 7 11 13 6 9 8 8 9 9 10 10 8 10 12 13 15 16 17 18 18 16 13 14 14 16 12 13 13 13 12 11 11 9
2 2 2 2 2 2 2 3 3 4 4 4 6 13 11 12 9 9 9 9 10 10 11 11 13 14 15 16 19 18 19 18 18 14 15 16 15 13 12 12 13 12 11 10 10
2 2 2 2 2 2 5 8 11 13 10 11 11 13 12 9 8 9 9 9 11 12 14 13 15 16 14 14 15 17 18 18 16 14 16 15 14 13 13 13 12 11 11 11 10
1 1 1 1 2 3 8 9 11 10 13 10 10 10 10 9 11 10 9 11 12 14 14 15 16 13 13 14 15 16 17 16 15 14 16 16 16 13 13 12 12 11 11 11 11
2 2 2 2 3 6 10 10 7 9 14 12 11 12 11 10 11 11 10 12 13 15 15 15 14 13 14 16 16 17 17 16 17 16 16 17 17 17 14 14 12 12 11 12 12
2 3 3 3 6 9 10 8 7 9 15 14 14 12 11 11 14 12 11 12 14 14 15 16 13 14 16 16 15 16 14 15 16 18 19 17 20 18 15 14 14 13 13 13 12
3 2 3 3 7 8 8 8 9 12 20 13 14 10 11 13 14 14 13 13 15 15 15 16 16 16 16 15 15 16 15 16 17 18 19 20 21 18 17 16 14 13 13 13 13
3 3 3 5 7 7 7 8 11 14 19 14 14 14 14 14 14 14 14 14 14 16 16 15 15 15 14 15 14 15 16 17 18 19 21 18 19 17 18 17 15 13 11 12 12
4 3 4 4 6 6 7 7 13 17 12 14 16 15 16 16 15 15 15 16 16 18 18 17 16 16 15 16 16 16 18 21 23 23 21 19 20 16 14 13 14 13 13 13 13
5 4 3 4 4 6 5 9 17 14 14 12 13 14 14 14 14 15 17 17 16 17 18 18 16 16 15 14 16 17 16 20 22 24 19 20 20 15 13 13 13 14 13 14 13
5 4 4 3 5 4 7 15 14 13 11 12 11 15 15 14 12 16 16 16 14 15 14 18 18 16 15 15 14 17 18 14 17 16 20 16 16 13 12 14 14 15 14 13 12
8 6 5 2 3 4 9 13 12 10 10 10 14 12 16 14 14 14 14 15 14 14 13 14 16 15 16 15 15 14 14 17 17 20 21 18 17 16 13 12 12 13 13 11 11
7 8 6 3 2 6 13 11 10 7 7 10 12 12 12 13 11 12 12 10 12 12 12 12 13 15 15 16 15 15 16 16 15 15 18 20 16 11 11 11 13 12 11 11 13
6 10 3 2 8 8 11 10 8 8 7 9 9 10 12 11 12 12 13 11 9 9 12 11 12 16 13 12 13 13 13 13 16 16 16 16 16 10 10 10 11 13 14 13 13
8 8 2 2 12 11 9 9 8 9 9 9 10 9 9 11 14 12 11 8 7 9 11 10 14 18 16 13 13 14 12 11 12 14 17 19 17 9 11 15 13 15 15 15 14
8 12 7 5 6 9 10 10 10 7 8 8 9 8 10 12 10 12 12 9 9 9 7 8 13 15 18 15 13 14 13 12 13 17 17 16 15 11 16 16 16 15 15 15 15
11 12 9 13 10 9 9 9 11 11 8 8 10 10 11 13 12 13 11 10 10 8 9 10 14 13 12 12 13 13 13 13 14 13 16 14 14 14 17 16 16 15 15 15 15
13 12 11 11 11 11 10 10 10 9 9 10 10 9 9 11 11 13 11 12 11 10 10 9 14 13 15 13 14 14 13 14 13 13 13 13 15 17 16 14 14 15 15 16 15
10 9 9 12 12 13 13 12 11 10 10 10 11 10 10 9 9 9 10 10 10 12 12 12 13 14 17 14 14 17 15 13 13 11 14 16 17 16 15 14 15 14 15 16 15